K7KAR-2 Weather Reports


time (UTC)temp
F
wind
direction
speed
knots
gust
knots
rain 1hr
in
rain 24hr
in
rain mn
in
humidity
%
barometer
mb
20260502194437 64 20 4.3 5.2 0.00 0.00 0.00 11 1017.4
20260502193933 63 20 5.2 8.7 0.00 0.00 0.00 12 1017.4
20260502193431 64 20 7.8 13.0 0.00 0.00 0.00 11 1017.5
20260502192926 63 20 7.8 8.7 0.00 0.00 0.00 11 1017.5
20260502192423 64 20 2.6 4.3 0.00 0.00 0.00 13 1017.5
20260502191920 63 20 5.2 7.0 0.00 0.00 0.00 11 1017.6
20260502191418 64 20 3.5 7.0 0.00 0.00 0.00 12 1017.4
20260502190915 64 21 7.8 7.8 0.00 0.00 0.00 11 1017.8
20260502190412 64 22 4.3 5.2 0.00 0.00 0.00 13 1017.7
20260502185909 63 20 6.1 12.2 0.00 0.00 0.00 13 1017.9
20260502185404 63 20 4.3 7.8 0.00 0.00 0.00 13 1018.1
20260502184901 62 20 4.3 6.1 0.00 0.00 0.00 14 1018.1
20260502184356 63 20 6.1 9.6 0.00 0.00 0.00 13 1018.0
20260502183854 61 20 3.5 6.1 0.00 0.00 0.00 15 1017.9
20260502183349 62 25 2.6 4.3 0.00 0.00 0.00 13 1018.0
20260502182845 62 26 5.2 7.0 0.00 0.00 0.00 15 1018.2
20260502182341 62 20 7.0 8.7 0.00 0.00 0.00 14 1018.1
20260502181837 61 20 4.3 7.0 0.00 0.00 0.00 14 1018.2
20260502181336 62 20 5.2 9.6 0.00 0.00 0.00 15 1018.0
20260502180834 62 20 5.2 7.8 0.00 0.00 0.00 15 1018.2
20260502180331 62 20 3.5 4.3 0.00 0.00 0.00 16 1018.6
20260502170249 60 20 4.3 9.6 0.00 0.00 0.00 17 1018.4
20260502164237 60 20 8.7 9.6 0.00 0.00 0.00 15 1018.4
20260502163732 59 20 7.8 9.6 0.00 0.00 0.00 16 1018.4
20260502163229 59 20 9.6 14.8 0.00 0.00 0.00 15 1018.2
20260502162726 59 20 11.3 15.6 0.00 0.00 0.00 15 1018.4
20260502162222 59 20 8.7 14.8 0.00 0.00 0.00 14 1018.2
20260502161719 60 20 7.8 11.3 0.00 0.00 0.00 14 1018.1
20260502161215 60 20 4.3 5.2 0.00 0.00 0.00 14 1018.1
20260502160714 60 20 7.0 9.6 0.00 0.00 0.00 14 1018.1
20260502160213 60 20 9.6 12.2 0.00 0.00 0.00 13 1018.1
20260502152127 60 20 9.6 9.6 0.00 0.00 0.00 13 1017.8
20260502151624 59 20 7.8 8.7 0.00 0.00 0.00 18 1017.8
20260502151121 59 20 0.0 0.0 0.00 0.00 0.00 18 1017.9
20260502150619 58 20 0.0 0.0 0.00 0.00 0.00 20 1017.6
20260502150115 57 20 0.9 0.9 0.00 0.00 0.00 21 1017.7
20260502130503 43 64 6.1 7.0 0.00 0.00 0.00 38 1016.6
20260502123446 40 49 7.0 7.8 0.00 0.00 0.00 43 1016.0
20260502122943 40 49 7.8 9.6 0.00 0.00 0.00 42 1016.0
20260502122439 40 46 7.0 8.7 0.00 0.00 0.00 42 1015.8
20260502121938 40 38 7.0 7.8 0.00 0.00 0.00 42 1015.8
20260502121434 39 28 5.2 6.1 0.00 0.00 0.00 43 1015.8
20260502120932 39 20 5.2 7.0 0.00 0.00 0.00 44 1016.0
20260502120428 39 20 6.1 7.0 0.00 0.00 0.00 45 1016.0
20260502115925 39 20 5.2 6.1 0.00 0.00 0.00 45 1016.0
20260502115422 39 20 6.1 7.0 0.00 0.00 0.00 45 1015.9
20260502114918 39 20 3.5 4.3 0.00 0.00 0.00 45 1016.1
20260502114415 39 20 4.3 5.2 0.00 0.00 0.00 44 1016.0
20260502113913 39 20 4.3 6.1 0.00 0.00 0.00 46 1016.0
20260502113410 39 20 4.3 5.2 0.00 0.00 0.00 46 1015.9
20260502112909 39 20 5.2 6.1 0.00 0.00 0.00 45 1016.0
20260502112406 39 20 5.2 6.1 0.00 0.00 0.00 46 1016.0
20260502111903 40 20 5.2 6.1 0.00 0.00 0.00 45 1015.9
20260502111400 39 20 3.5 5.2 0.00 0.00 0.00 47 1016.0
20260502110857 39 20 4.3 5.2 0.00 0.00 0.00 49 1015.9
20260502110355 39 20 4.3 5.2 0.00 0.00 0.00 49 1016.0
20260502105852 39 20 5.2 6.1 0.00 0.00 0.00 49 1015.9
20260502105349 38 20 4.3 7.0 0.00 0.00 0.00 51 1015.8
20260502104847 37 20 3.5 4.3 0.00 0.00 0.00 52 1015.8
20260502104344 38 20 3.5 4.3 0.00 0.00 0.00 52 1016.1
20260502103841 38 20 2.6 4.3 0.00 0.00 0.00 51 1016.0
20260502103339 37 20 3.5 4.3 0.00 0.00 0.00 52 1015.8
20260502102836 38 20 5.2 6.1 0.00 0.00 0.00 51 1015.6
20260502102332 38 20 4.3 6.1 0.00 0.00 0.00 50 1015.9
20260502101830 39 20 3.5 4.3 0.00 0.00 0.00 49 1016.0
20260502101328 39 20 4.3 5.2 0.00 0.00 0.00 48 1016.4
20260502100826 39 20 3.5 4.3 0.00 0.00 0.00 47 1016.1
20260502100325 40 20 4.3 5.2 0.00 0.00 0.00 46 1015.9
20260502091259 40 20 3.5 4.3 0.00 0.00 0.00 44 1015.6
20260502090756 41 20 3.5 4.3 0.00 0.00 0.00 43 1015.4
20260502090253 40 20 4.3 5.2 0.00 0.00 0.00 44 1015.5
20260502071148 48 20 3.5 4.3 0.00 0.00 0.00 27 1016.1
20260502070646 47 20 3.5 4.3 0.00 0.00 0.00 30 1016.1
20260502070143 48 20 2.6 2.6 0.00 0.00 0.00 30 1016.0
20260502065641 47 20 2.6 2.6 0.00 0.00 0.00 31 1016.1
20260502065138 44 20 1.7 1.7 0.00 0.00 0.00 36 1015.8
20260502064638 44 20 4.3 4.3 0.00 0.00 0.00 39 1016.3
20260502064134 46 20 2.6 2.6 0.00 0.00 0.00 32 1016.1
20260502063632 51 20 4.3 5.2 0.00 0.00 0.00 18 1016.0
20260502063130 51 20 6.1 7.0 0.00 0.00 0.00 22 1016.1
20260502062626 53 20 7.8 8.7 0.00 0.00 0.00 18 1016.3
20260502062124 52 20 6.1 7.0 0.00 0.00 0.00 17 1016.0
20260502061622 56 20 3.5 4.3 0.00 0.00 0.00 10 1016.0
20260502061120 54 20 2.6 2.6 0.00 0.00 0.00 11 1016.0
20260502060619 54 20 0.0 0.0 0.00 0.00 0.00 12 1016.3
20260502060116 55 20 0.0 0.0 0.00 0.00 0.00 11 1016.0
20260502055614 55 20 0.9 0.9 0.00 0.00 0.00 11 1015.9
20260502055112 55 20 2.6 4.3 0.00 0.00 0.00 11 1015.9
20260502054611 55 20 2.6 2.6 0.00 0.00 0.00 11 1015.8
20260502054108 55 20 2.6 2.6 0.00 0.00 0.00 11 1015.9
20260502053605 55 20 2.6 4.3 0.00 0.00 0.00 11 1015.9
20260502053102 56 20 2.6 2.6 0.00 0.00 0.00 10 1016.0
20260502052600 55 20 3.5 4.3 0.00 0.00 0.00 10 1016.1
20260502052058 54 20 3.5 4.3 0.00 0.00 0.00 12 1016.0
20260502051556 55 20 1.7 1.7 0.00 0.00 0.00 11 1016.0
20260502051054 56 20 2.6 2.6 0.00 0.00 0.00 10 1016.1
20260502050549 56 20 3.5 4.3 0.00 0.00 0.00 10 1016.1
20260502050046 57 20 2.6 2.6 0.00 0.00 0.00 10 1016.3
20260502045543 56 20 2.6 2.6 0.00 0.00 0.00 10 1016.0
20260502045040 56 20 1.7 1.7 0.00 0.00 0.00 10 1016.0
20260502044537 57 20 0.0 0.0 0.00 0.00 0.00 10 1016.0
20260502044033 57 20 0.0 0.0 0.00 0.00 0.00 10 1016.3
20260502043531 57 20 0.9 1.7 0.00 0.00 0.00 10 1016.4
20260502043027 57 20 1.7 1.7 0.00 0.00 0.00 10 1016.3
20260502042522 56 20 2.6 2.6 0.00 0.00 0.00 10 1016.3
20260502042020 56 20 0.0 0.0 0.00 0.00 0.00 10 1016.1
20260502041518 57 20 0.0 0.0 0.00 0.00 0.00 10 1016.1
20260502041015 57 20 0.0 0.0 0.00 0.00 0.00 10 1016.1
20260502040511 57 20 0.0 0.0 0.00 0.00 0.00 10 1016.0
20260502040009 57 20 0.0 0.0 0.00 0.00 0.00 10 1016.1
20260502035504 57 20 1.7 1.7 0.00 0.00 0.00 10 1016.0
20260502035002 58 20 0.9 1.7 0.00 0.00 0.00 10 1016.0
20260502034459 57 20 0.0 0.0 0.00 0.00 0.00 10 1015.9
20260502033958 57 20 0.0 0.0 0.00 0.00 0.00 10 1016.3
20260502033455 57 20 0.0 0.0 0.00 0.00 0.00 10 1015.8
20260502032952 58 20 0.0 0.0 0.00 0.00 0.00 10 1016.0
20260502032448 58 21 0.0 0.0 0.00 0.00 0.00 10 1015.9
20260502031945 59 24 1.7 1.7 0.00 0.00 0.00 10 1015.9
20260502031444 61 27 1.7 2.6 0.00 0.00 0.00 10 1015.5
20260502030941 62 30 4.3 5.2 0.00 0.00 0.00 10 1015.8
20260502030439 62 34 5.2 6.1 0.00 0.00 0.00 10 1015.7
20260502025931 62 31 4.3 6.1 0.00 0.00 0.00 10 1015.8
20260502025428 62 33 6.1 6.1 0.00 0.00 0.00 10 1015.7
20260502024926 62 37 4.3 5.2 0.00 0.00 0.00 10 1015.7
20260502024424 62 31 4.3 5.2 0.00 0.00 0.00 10 1015.7
20260502023922 62 30 2.6 2.6 0.00 0.00 0.00 10 1015.6
20260502023419 62 33 4.3 5.2 0.00 0.00 0.00 10 1015.7
20260502022916 62 35 4.3 5.2 0.00 0.00 0.00 10 1015.5
20260502022412 63 40 5.2 6.1 0.00 0.00 0.00 10 1015.5
20260502021909 63 45 6.1 6.1 0.00 0.00 0.00 10 1015.5
20260502021407 64 43 4.3 6.1 0.00 0.00 0.00 10 1015.3
20260502020904 64 35 5.2 7.0 0.00 0.00 0.00 10 1015.1
20260502020402 65 35 5.2 6.1 0.00 0.00 0.00 10 1015.4
20260502015858 66 39 4.3 6.1 0.00 0.00 0.00 10 1015.4
20260502015356 67 43 0.9 1.7 0.00 0.00 0.00 10 1015.5
20260502014853 67 50 4.3 5.2 0.00 0.00 0.00 10 1015.3
20260502014350 67 54 4.3 5.2 0.00 0.00 0.00 10 1015.6
20260502013845 68 69 4.3 7.0 0.00 0.00 0.00 10 1015.6
20260502013341 68 81 2.6 4.3 0.00 0.00 0.00 10 1015.6
20260502012838 68 84 5.2 6.1 0.00 0.00 0.00 10 1015.5
20260502012337 68 81 5.2 6.1 0.00 0.00 0.00 10 1015.1
20260502011833 68 70 4.3 6.1 0.00 0.00 0.00 10 1015.4
20260502011329 68 60 5.2 7.0 0.00 0.00 0.00 10 1015.5
20260502010827 69 42 4.3 6.1 0.00 0.00 0.00 10 1015.5
20260502010323 69 32 4.3 5.2 0.00 0.00 0.00 10 1015.4
20260502005820 69 22 4.3 4.3 0.00 0.00 0.00 10 1015.6
20260502005318 70 20 3.5 4.3 0.00 0.00 0.00 10 1015.6
20260502004815 70 20 7.0 8.7 0.00 0.00 0.00 10 1015.6
20260502004311 70 20 2.6 2.6 0.00 0.00 0.00 10 1015.6
20260502003809 71 20 2.6 2.6 0.00 0.00 0.00 10 1015.8
20260502003305 71 20 2.6 2.6 0.00 0.00 0.00 10 1015.6
20260502002801 72 20 0.0 0.0 0.00 0.00 0.00 10 1015.6
20260502002259 71 20 0.0 0.0 0.00 0.00 0.00 10 1015.8
20260502001756 73 20 1.7 1.7 0.00 0.00 0.00 10 1015.7
20260502001255 73 21 0.0 0.0 0.00 0.00 0.00 10 1016.0
20260502000752 72 22 3.5 4.3 0.00 0.00 0.00 10 1015.8
20260502000250 73 24 2.6 2.6 0.00 0.00 0.00 10 1015.9
20260501235744 72 25 3.5 4.3 0.00 0.00 0.00 10 1016.0
20260501235241 73 25 4.3 6.1 0.00 0.00 0.00 10 1016.0
20260501234737 72 27 3.5 4.3 0.00 0.00 0.00 10 1016.0
20260501234234 72 31 2.6 4.3 0.00 0.00 0.00 10 1015.9
20260501233732 72 35 7.0 8.7 0.00 0.00 0.00 10 1015.8
20260501233229 72 31 3.5 4.3 0.00 0.00 0.00 10 1015.9
20260501232724 71 33 2.6 2.6 0.00 0.00 0.00 10 1015.9
20260501232222 71 33 3.5 4.3 0.00 0.00 0.00 10 1016.0
20260501231719 71 32 0.9 0.9 0.00 0.00 0.00 10 1016.0
20260501231217 70 32 2.6 2.6 0.00 0.00 0.00 10 1015.8
20260501230716 71 32 1.7 2.6 0.00 0.00 0.00 10 1015.9
20260501230214 71 31 0.9 0.9 0.00 0.00 0.00 10 1015.9
20260501225711 72 31 2.6 2.6 0.00 0.00 0.00 10 1016.5
20260501225208 71 35 2.6 4.3 0.00 0.00 0.00 10 1016.4
20260501224703 71 34 5.2 6.1 0.00 0.00 0.00 10 1016.5
20260501224201 72 32 0.0 0.0 0.00 0.00 0.00 10 1016.1
20260501223658 72 31 2.6 2.6 0.00 0.00 0.00 10 1016.3
20260501223154 71 32 2.6 2.6 0.00 0.00 0.00 10 1016.4
20260501222650 73 31 1.7 1.7 0.00 0.00 0.00 10 1016.3
20260501222148 72 35 1.7 1.7 0.00 0.00 0.00 10 1016.4
20260501221644 71 41 4.3 6.1 0.00 0.00 0.00 10 1016.3
20260501221137 71 41 2.6 4.3 0.00 0.00 0.00 10 1016.4
20260501220634 71 39 5.2 9.6 0.00 0.00 0.00 10 1016.7
20260501220131 71 37 4.3 6.1 0.00 0.00 0.00 10 1016.6
20260501215627 70 37 1.7 1.7 0.00 0.00 0.00 10 1016.7
20260501215123 70 37 6.1 6.1 0.00 0.00 0.00 10 1017.0
20260501214618 69 38 4.3 6.1 0.00 0.00 0.00 10 1016.7
20260501214114 70 37 6.1 7.0 0.00 0.00 0.00 10 1016.9
20260501213611 71 38 4.3 7.0 0.00 0.00 0.00 10 1016.8
20260501213107 70 40 4.3 7.0 0.00 0.00 0.00 10 1016.9
20260501212604 69 42 2.6 2.6 0.00 0.00 0.00 10 1017.1
20260501212100 69 40 4.3 7.0 0.00 0.00 0.00 10 1017.1
20260501211557 69 36 5.2 6.1 0.00 0.00 0.00 10 1017.2
20260501211055 68 37 5.2 6.1 0.00 0.00 0.00 10 1017.0
20260501210551 68 34 1.7 1.7 0.00 0.00 0.00 10 1017.2
20260501210048 68 35 2.6 2.6 0.00 0.00 0.00 10 1017.0
20260501205544 69 39 0.9 0.9 0.00 0.00 0.00 10 1017.6
20260501205042 68 43 2.6 4.3 0.00 0.00 0.00 10 1017.5
20260501204538 68 34 4.3 6.1 0.00 0.00 0.00 10 1017.4
20260501204034 68 27 6.1 8.7 0.00 0.00 0.00 10 1017.2
20260501203531 68 25 3.5 6.1 0.00 0.00 0.00 10 1017.2
20260501203029 67 25 0.9 1.7 0.00 0.00 0.00 10 1017.4
20260501202526 68 25 1.7 2.6 0.00 0.00 0.00 10 1017.5
20260501202022 68 27 2.6 5.2 0.00 0.00 0.00 10 1017.5
20260501201520 69 24 3.5 7.8 0.00 0.00 0.00 10 1017.6
20260501201016 69 23 4.3 7.0 0.00 0.00 0.00 10 1017.5
20260501200513 68 23 2.6 4.3 0.00 0.00 0.00 10 1017.5
20260501200011 69 22 3.5 4.3 0.00 0.00 0.00 10 1017.6
20260501195507 70 22 0.9 1.7 0.00 0.00 0.00 10 1017.4
20260501195003 70 21 2.6 4.3 0.00 0.00 0.00 10 1017.5